sat.trackr.live / text

‹ back to catalog

IRIDIUM 103

NORAD 41918 · 2017-003B

PAYLOAD ACTIVE UNKNOWN

§ Identity

Operator
Country
US
Launch date
2017-01-14
Launch site
AFWTR
Launch vehicle
Mass (kg)
RCS (m²)
2.39

Purposes: comms

External: N2YO · Heavens-Above · Gunter

§ Orbital elements

Epoch: 2026-09-20T04:15:18.338976Z

Period
100.40 min
Inclination
86.3948°
Eccentricity
0.0002254
Mean motion
14.34217779 rev/d
Perigee alt
776.1 km
Apogee alt
779.3 km
Semi-major
7,155.8 km
B*
5.4349e-5
RAAN
48.7092°
Arg perigee
88.9868°
Mean anomaly
271.1586°
Rev number
50,684

§ Raw data

IRIDIUM 1031 41918U 17003B   26263.17729559  .00000172  00000+0  54349-4 0  99962 41918  86.3948  48.7092 0002254  88.9868 271.1586 14.34217779506841

JSON: /api/v1/satellites/41918 · /tle

For live sub-satellite position, see the globe view (requires WebGL).

§ Visibility from observer

Set your observer location to see the next 7 days of passes ≥ 10°. The values pass through the URL so the page stays shareable.

No JS? Fill the form by hand. The geolocation button needs JavaScript.